[[{"header":{"parameterUnit":"m.s-1","parameterCategory":1,"la1":30.2991,"la2":30.254,"lo1":-89.0895,"lo2":-89.0444,"dx":0.0017,"dy":0.0017,"nx":28,"ny":28,"refTime":"2022-12-18T15:00:00:Z","depth":0,"parameterNumber":2,"parameterNumberName":"U-component_of_WINDS"},"data":[0,0,0,0,0,0,0,0,0,0,0,0,0,0,0,0,0,0,0,0,0,0,0,0,0,0,0,0,0,0,0,0,0,0,0,0,0,0,0,0,0,0,0,0,0,0,0,0,0,0,0,0,0,0,0,0,0,0,-4.4708,-4.4708,0,-4.4787,-4.4788,-4.4789,-4.4682,-4.4678,-4.4674,-4.4671,-4.4752,-4.4757,-4.4763,0,0,0,0,0,0,0,0,0,0,0,0,0,-4.4464,-4.4469,-4.4708,-4.4709,-4.471,-4.4787,-4.4788,-4.4789,-4.4683,-4.4678,-4.4673,-4.4669,-4.475,-4.4757,-4.4763,0,0,0,0,0,0,0,0,0,0,0,0,0,-4.4559,-4.447,-4.4707,-4.4666,-4.4663,-4.4786,-4.4788,-4.4789,-4.4684,-4.4678,-4.4672,-4.4667,-4.4748,-4.4756,-4.4764,-4.4932,0,0,-4.4791,-4.4794,0,0,0,0,0,0,0,0,-4.4554,-4.4568,-4.4671,-4.4669,-4.4666,-4.4719,-4.4731,-4.4837,-4.4685,-4.4676,-4.4671,-4.4664,-4.4745,-4.4754,-4.4781,-4.4936,-4.494,-4.4791,-4.4797,-4.48,-4.4803,0,0,0,0,0,0,0,-4.4547,-4.4564,-4.4739,-4.4673,-4.467,-4.4643,-4.465,-4.4751,-4.4742,-4.4676,-4.4669,-4.4679,-4.4743,-4.4773,-4.4782,-4.4941,-4.4791,-4.4799,-4.4804,-4.4807,-4.5238,-4.5244,0,0,0,0,0,0,-4.4546,-4.4559,-4.4736,-4.4741,-4.4594,-4.4652,-4.466,-4.4708,-4.474,-4.474,-4.4684,-4.4674,-4.4761,-4.4772,-4.4785,-4.4984,-4.48,-4.4808,-4.4813,-4.5232,-4.5239,-4.5246,0,0,0,0,0,0,-4.4541,-4.4562,-4.4733,-4.4648,-4.4668,-4.4662,-4.4717,-4.4712,-4.4742,-4.4747,-4.4744,-4.4717,-4.4757,-4.4773,-4.4897,-4.4986,-4.4812,-4.482,-4.5224,-4.5234,-4.5243,-4.5385,0,0,0,0,0,0,-4.4534,-4.4561,-4.4625,-4.465,-4.4673,-4.4844,-4.4722,-4.4718,-4.4758,-4.4745,-4.4777,-4.4777,-4.4754,-4.4884,-4.4905,-4.4994,-4.4827,-4.5216,-4.5228,-4.524,-4.5372,-4.5398,-4.542,0,0,0,0,0,-4.4526,-4.4662,-4.4629,-4.4651,-4.4753,-4.485,-4.4862,-4.4834,-4.4765,-4.4829,-4.4832,-4.4776,-4.4972,-4.4898,-4.492,-4.5014,-4.521,-4.5225,-4.5239,-4.5361,-4.5393,-4.5419,0,0,0,0,0,0,-4.4648,-4.4665,-4.4628,-4.4777,-4.4813,-4.4832,-4.4912,-4.4868,-4.4924,-4.491,-4.4872,-4.488,-4.5013,-4.5025,-4.4942,-4.5178,-4.508,-4.5099,-4.5165,-4.5195,-4.5219,-4.5214,-4.4834,0,0,0,0,0,-4.4692,-4.4769,-4.4779,-4.4909,-4.4929,-4.4918,-4.4959,-4.4934,-4.4969,-4.4984,-4.4995,-4.5032,-4.5102,-4.5149,-4.5213,-4.5372,-4.5378,-4.5448,-4.5471,-4.5491,-4.5509,-4.5594,-4.5626,-4.5292,-4.5292,-4.5292,0,0,-4.4784,-4.4802,-4.4854,-4.4934,-4.4959,-4.504,-4.4931,-4.5021,-4.5081,-4.4997,-4.5116,-4.5125,-4.5163,-4.5306,-4.5369,-4.5321,-4.5602,-4.5509,-4.5525,-4.5532,-4.5612,-4.5644,-4.5672,-4.5302,-4.53,-4.5299,0,0,-4.4993,-4.5015,-4.5126,-4.5153,-4.5192,-4.5183,-4.521,-4.5236,-4.5239,-4.5357,-4.5296,-4.5366,-4.5487,-4.5517,-4.5548,-4.5768,-4.5719,-4.579,-4.5916,-4.6,-4.6026,-4.6049,-4.6129,-4.6158,-4.5807,-4.5808,-4.5808,0,-4.5103,-4.5223,-4.5188,-4.5284,-4.5321,-4.5248,-4.536,-4.5388,-4.5446,-4.5474,-4.5418,-4.5569,-4.5589,-4.5738,-4.5792,-4.5819,-4.5849,-4.5787,-4.6025,-4.6048,-4.6069,-4.6145,-4.6175,-4.5816,-4.5815,-4.5814,-4.5814,0,-4.5356,-4.544,-4.5525,-4.5583,-4.563,-4.5733,-4.5714,-4.5766,-4.5736,-4.5733,-4.5854,-4.5876,-4.5944,-4.5977,-4.5949,-4.6123,-4.6091,-4.6031,-4.5932,-4.611,-4.618,-4.6209,-4.5829,-4.5825,-4.5823,-4.5821,0,0,-4.5646,-4.5684,-4.5716,-4.5741,-4.5778,-4.5843,-4.5942,-4.6009,-4.6054,-4.6096,-4.6179,-4.6283,-4.6228,-4.6263,-4.6237,-4.6311,-4.6485,-4.6241,-4.6242,-4.6287,-4.6679,-4.6725,-4.6759,-4.6452,-4.6457,-4.6461,-4.6676,0,-4.5856,-4.6029,-4.6001,-4.6168,-4.6246,-4.6177,-4.6264,-4.6297,-4.6296,-4.6362,-4.6361,-4.6436,-4.6356,-4.6377,-4.6447,-4.645,-4.6564,-4.6433,-4.653,-4.6533,-4.6524,-4.6796,-4.6845,-4.7047,-4.6703,-4.6708,-4.6711,0,-4.6125,-4.6178,-4.6353,-4.6378,-4.641,-4.6489,-4.6547,-4.661,-4.6645,-4.664,-4.668,-4.6641,-4.674,-4.6638,-4.6775,-4.6687,-4.6724,-4.6731,-4.6738,-4.6747,-4.6635,-4.6814,-4.711,-4.7142,-4.6754,-4.6751,-4.6748,0,-4.6321,-4.6435,-4.6555,-4.6579,-4.6611,-4.6668,-4.6684,-4.6713,-4.6755,-4.6806,-4.6833,-4.6895,-4.6929,-4.6978,-4.6957,-4.6884,-4.7098,-4.6994,-4.7097,-4.7098,-4.7146,-4.7144,-4.7455,-4.7168,-4.7168,-4.7167,-4.7166,0,-4.656,-4.667,-4.6643,-4.6718,-4.6839,-4.6805,-4.6926,-4.6933,-4.696,-4.7034,-4.6978,-4.7049,-4.7015,-4.7084,-4.7067,-4.7184,-4.7199,-4.7198,-4.7193,-4.7204,-4.7205,-4.7229,-4.7215,-4.7175,-4.7173,-4.7172,-4.717,0,-4.68,-4.6786,-4.6913,-4.6933,-4.694,-4.7029,-4.7046,-4.7115,-4.711,-4.7204,-4.7224,-4.7217,-4.7295,-4.7277,-4.7362,-4.7351,-4.7498,-4.7474,-4.7486,-4.7481,-4.7586,-4.7577,-4.7924,-4.7969,-4.7652,-4.7655,-4.7658,0,-4.6954,-4.7038,-4.7067,-4.7112,-4.7133,-4.7207,-4.7249,-4.7219,-4.7265,-4.7311,-4.7375,-4.7447,-4.7504,-4.7631,-4.7633,-4.7698,-4.7676,-4.7793,-4.7686,-4.7695,-4.768,-4.7676,-4.7684,-4.7816,-4.7819,-4.7822,-4.7824,0,-4.723,-4.7219,-4.7283,-4.7344,-4.7397,-4.7443,-4.7485,-4.7525,-4.7498,-4.7553,-4.7632,-4.7676,-4.7762,-4.7835,-4.7895,-4.7911,-4.7864,-4.7858,-4.7886,-4.7899,-4.7904,-4.7904,-4.7547,-4.7851,-4.7848,-4.7846,-4.7845,-4.7844,-4.7433,-4.7504,-4.7536,-4.7608,-4.7636,-4.7676,-4.7742,-4.7745,-4.7811,-4.7879,-4.7856,-4.7947,-4.7979,-4.8054,-4.8077,-4.8147,-4.8103,-4.8143,-4.8153,-4.8164,-4.8177,-4.7891,-4.8158,-4.8157,-4.8156,-4.8156,-4.8155,0,-4.7707,-4.7724,-4.7791,-4.7851,-4.7908,-4.7858,-4.7901,-4.7952,-4.8033,-4.8067,-4.8123,-4.8214,-4.8284,-4.8292,-4.8358,-4.8413,-4.8393,-4.8431,-4.8428,-4.8433,-4.8212,-4.8183,-4.8446,-4.8446,-4.8446,-4.8446,-4.8446,-4.8446,-4.7857,-4.7975,-4.7968,-4.8099,-4.8114,-4.8202,-4.8231,-4.8268,-4.8295,-4.8399,-4.8457,-4.8461,-4.8485,-4.8552,-4.8615,-4.8615,-4.8643,-4.869,-4.8682,-4.8477,-4.8448,-4.842,-4.8392,-4.8696,-4.8696,-4.8897,-4.8898,-4.89]},{"header":{"parameterUnit":"m.s-1","parameterCategory":1,"la1":30.2991,"la2":30.254,"lo1":-89.0895,"lo2":-89.0444,"dx":0.0017,"dy":0.0017,"nx":28,"ny":28,"refTime":"2022-12-18T15:00:00:Z","depth":0,"parameterNumber":3,"parameterNumberName":"V-component_of_WINDS"},"data":[0,0,0,0,0,0,0,0,0,0,0,0,0,0,0,0,0,0,0,0,0,0,0,0,0,0,0,0,0,0,0,0,0,0,0,0,0,0,0,0,0,0,0,0,0,0,0,0,0,0,0,0,0,0,0,0,0,0,-4.2028,-4.2028,0,-4.2024,-4.2024,-4.2024,-4.1949,-4.1947,-4.1945,-4.1944,-4.194,-4.1941,-4.1943,0,0,0,0,0,0,0,0,0,0,0,0,0,-4.1971,-4.1972,-4.2028,-4.2028,-4.2028,-4.2024,-4.2024,-4.2024,-4.1949,-4.1947,-4.1945,-4.1943,-4.1939,-4.1941,-4.1943,0,0,0,0,0,0,0,0,0,0,0,0,0,-4.1984,-4.1973,-4.2028,-4.1991,-4.1987,-4.2024,-4.2024,-4.2024,-4.195,-4.1947,-4.1944,-4.1942,-4.1938,-4.1941,-4.1943,-4.2016,0,0,-4.1951,-4.1952,0,0,0,0,0,0,0,0,-4.1983,-4.1986,-4.1996,-4.1993,-4.1989,-4.1984,-4.2002,-4.2021,-4.1951,-4.1964,-4.1943,-4.194,-4.1957,-4.1958,-4.1963,-4.2016,-4.2016,-4.1951,-4.1953,-4.1954,-4.1954,0,0,0,0,0,0,0,-4.1983,-4.1986,-4.2026,-4.1996,-4.1992,-4.1973,-4.1972,-4.2005,-4.1977,-4.1963,-4.1957,-4.1958,-4.1954,-4.1961,-4.1962,-4.2016,-4.1951,-4.1953,-4.1955,-4.1956,-4.2125,-4.2128,0,0,0,0,0,0,-4.1987,-4.1986,-4.2027,-4.2026,-4.1979,-4.1977,-4.1975,-4.1989,-4.1976,-4.1971,-4.196,-4.1954,-4.1958,-4.196,-4.1962,-4.2044,-4.1954,-4.1956,-4.1958,-4.2122,-4.2126,-4.2129,0,0,0,0,0,0,-4.1986,-4.1991,-4.2027,-4.2005,-4.2008,-4.1981,-4.1996,-4.199,-4.1996,-4.1974,-4.1968,-4.1972,-4.1956,-4.1958,-4.2002,-4.2043,-4.1957,-4.1959,-4.2119,-4.2123,-4.2127,-4.2211,0,0,0,0,0,0,-4.1985,-4.1991,-4.2019,-4.2006,-4.2009,-4.2068,-4.1999,-4.1992,-4.2001,-4.1993,-4.1984,-4.198,-4.1954,-4.1999,-4.2005,-4.2045,-4.1961,-4.2115,-4.2121,-4.2126,-4.2204,-4.2218,-4.2229,0,0,0,0,0,-4.1983,-4.2044,-4.2021,-4.2027,-4.2043,-4.2071,-4.2072,-4.2041,-4.2005,-4.2032,-4.2017,-4.198,-4.2038,-4.2004,-4.201,-4.2052,-4.2112,-4.2119,-4.2125,-4.2199,-4.2215,-4.2229,0,0,0,0,0,0,-4.2064,-4.2041,-4.2016,-4.2075,-4.2075,-4.2058,-4.2092,-4.206,-4.2071,-4.2064,-4.2024,-4.2023,-4.2073,-4.2067,-4.203,-4.212,-4.2068,-4.2077,-4.2122,-4.2137,-4.215,-4.2149,-4.1964,0,0,0,0,0,-4.2088,-4.2112,-4.2092,-4.2145,-4.2146,-4.2119,-4.213,-4.2106,-4.2105,-4.2105,-4.2093,-4.2094,-4.2111,-4.2124,-4.214,-4.2203,-4.2199,-4.2235,-4.2247,-4.2257,-4.2265,-4.2295,-4.231,-4.2151,-4.2151,-4.2151,0,0,-4.214,-4.213,-4.2148,-4.2161,-4.2158,-4.2183,-4.212,-4.215,-4.2168,-4.2109,-4.2149,-4.2141,-4.2139,-4.2192,-4.2215,-4.2189,-4.2308,-4.2266,-4.2274,-4.2276,-4.2304,-4.2319,-4.2332,-4.2156,-4.2155,-4.2154,0,0,-4.2245,-4.2241,-4.2284,-4.2282,-4.2279,-4.226,-4.227,-4.2258,-4.2249,-4.2289,-4.2245,-4.2266,-4.2298,-4.2298,-4.2302,-4.2405,-4.237,-4.2411,-4.2475,-4.2506,-4.2518,-4.2529,-4.2564,-4.2577,-4.2418,-4.2419,-4.2419,0,-4.2309,-4.2345,-4.231,-4.2342,-4.2348,-4.2296,-4.2338,-4.2338,-4.234,-4.2345,-4.2316,-4.2354,-4.2349,-4.24,-4.2425,-4.2431,-4.244,-4.2411,-4.2519,-4.253,-4.2539,-4.2572,-4.2586,-4.2423,-4.2423,-4.2422,-4.2422,0,-4.2423,-4.2448,-4.2483,-4.2485,-4.2495,-4.2533,-4.2503,-4.2517,-4.2492,-4.2476,-4.2516,-4.2508,-4.2519,-4.253,-4.2506,-4.2578,-4.2561,-4.2526,-4.2473,-4.256,-4.259,-4.2603,-4.243,-4.2429,-4.2427,-4.2426,0,0,-4.258,-4.2561,-4.2574,-4.2573,-4.2564,-4.2583,-4.2617,-4.2628,-4.264,-4.2643,-4.267,-4.2698,-4.2664,-4.2669,-4.2644,-4.2671,-4.2751,-4.2632,-4.2632,-4.2653,-4.2827,-4.2852,-4.2867,-4.2728,-4.273,-4.2732,-4.2826,0,-4.268,-4.2737,-4.2705,-4.2766,-4.2788,-4.2737,-4.2767,-4.2764,-4.275,-4.2766,-4.275,-4.2769,-4.2725,-4.2727,-4.2752,-4.2736,-4.2785,-4.2729,-4.2751,-4.2752,-4.2752,-4.2883,-4.291,-4.3,-4.2838,-4.284,-4.2841,0,-4.2805,-4.2812,-4.2874,-4.2859,-4.2867,-4.2894,-4.29,-4.2916,-4.2912,-4.2899,-4.2904,-4.2872,-4.2903,-4.2851,-4.2893,-4.2855,-4.2863,-4.2856,-4.2859,-4.2859,-4.2801,-4.2885,-4.3028,-4.304,-4.286,-4.2858,-4.2857,0,-4.2911,-4.2936,-4.2976,-4.2977,-4.296,-4.298,-4.2974,-4.2967,-4.2974,-4.298,-4.2984,-4.2994,-4.2999,-4.3007,-4.2978,-4.2943,-4.3023,-4.2969,-4.3012,-4.3013,-4.303,-4.303,-4.3175,-4.3038,-4.3038,-4.3038,-4.3037,0,-4.3026,-4.3066,-4.3022,-4.3047,-4.3089,-4.3052,-4.3095,-4.3084,-4.3078,-4.3098,-4.3056,-4.3076,-4.3038,-4.3054,-4.3032,-4.3068,-4.3072,-4.3061,-4.3055,-4.3064,-4.3066,-4.3068,-4.306,-4.3041,-4.304,-4.304,-4.3039,0,-4.3151,-4.3124,-4.3164,-4.3144,-4.314,-4.3172,-4.3155,-4.3176,-4.3158,-4.3185,-4.3189,-4.3161,-4.3178,-4.315,-4.3164,-4.3149,-4.32,-4.3184,-4.3201,-4.3196,-4.324,-4.3235,-4.339,-4.3408,-4.3262,-4.3263,-4.3264,0,-4.3225,-4.3254,-4.3237,-4.3247,-4.3243,-4.3261,-4.3268,-4.3233,-4.3242,-4.3237,-4.3259,-4.3272,-4.328,-4.3309,-4.329,-4.33,-4.3283,-4.3337,-4.3285,-4.3293,-4.3282,-4.328,-4.3282,-4.3348,-4.3349,-4.3351,-4.3352,0,-4.3359,-4.3343,-4.3355,-4.3361,-4.3371,-4.3374,-4.3375,-4.3386,-4.3348,-4.336,-4.3376,-4.3383,-4.3395,-4.3408,-4.3413,-4.3407,-4.3373,-4.3369,-4.3379,-4.3388,-4.3396,-4.339,-4.3228,-4.3365,-4.3364,-4.3363,-4.3362,-4.3362,-4.346,-4.3482,-4.3473,-4.3486,-4.3482,-4.3483,-4.3501,-4.3485,-4.3498,-4.3505,-4.3483,-4.3504,-4.3496,-4.3499,-4.3496,-4.3511,-4.3488,-4.3503,-4.3507,-4.351,-4.3517,-4.3395,-4.3513,-4.3512,-4.3512,-4.3511,-4.3511,0,-4.3589,-4.358,-4.3593,-4.3594,-4.3604,-4.3571,-4.3569,-4.358,-4.3598,-4.3594,-4.3603,-4.362,-4.3632,-4.3613,-4.3622,-4.3637,-4.3622,-4.3641,-4.3638,-4.3637,-4.3538,-4.3528,-4.3653,-4.3653,-4.3653,-4.3653,-4.3653,-4.3653,-4.3658,-4.3693,-4.3676,-4.3709,-4.3699,-4.3718,-4.372,-4.372,-4.3716,-4.3737,-4.3746,-4.3734,-4.3723,-4.373,-4.3739,-4.3733,-4.3738,-4.3762,-4.375,-4.3658,-4.3644,-4.3631,-4.3621,-4.3763,-4.3764,-4.3847,-4.3848,-4.3849]}]]